Temperature
25 24 24 24 24 25 24 24 23 24 24 24 23 23 23 23 23 22 22 22 21 20 20 20 19 19 19 19 19 18 18 18 17 17 17 17 17 16 16 16 16 16 16 16
25 24 25 26 25 25 24 24 23 24 24 24 23 23 24 23 23 23 22 22 21 21 20 19 19 19 19 19 18 18 18 18 17 17 17 17 16 16 16 16 16 16 16 16
24 24 25 25 25 25 25 24 24 24 24 25 24 23 23 24 23 23 22 22 21 21 20 19 19 19 19 18 18 18 18 18 17 17 17 16 16 16 16 16 16 16 16 16
25 25 25 25 25 25 24 25 25 24 23 23 24 22 23 23 23 23 22 22 22 21 20 19 19 19 19 18 18 18 18 17 17 17 17 16 16 16 16 16 16 16 16 16
24 25 25 24 25 25 24 25 25 25 24 23 24 23 23 24 22 22 22 22 22 21 20 19 19 19 18 18 18 18 18 18 17 17 17 16 16 16 16 16 16 15 15 15
25 25 25 25 25 25 25 25 25 25 24 22 24 23 22 23 23 23 22 22 21 21 20 20 19 19 18 18 18 18 17 17 17 17 17 16 16 16 16 16 15 15 15 15
25 25 25 25 25 25 25 23 22 22 22 23 25 24 23 24 24 24 23 22 21 21 20 20 19 18 18 18 17 17 17 17 17 17 16 16 16 16 16 16 15 15 15 15
24 24 25 25 25 24 25 24 22 22 22 24 25 24 23 24 24 24 23 22 21 21 20 20 19 18 18 18 17 17 17 17 17 16 16 16 16 16 16 16 15 15 15 15
24 24 25 26 26 25 24 24 25 24 24 23 24 24 23 24 24 23 23 22 21 21 20 20 19 18 18 18 17 17 17 17 16 16 16 16 16 16 16 15 15 15 15 15
25 24 25 26 25 25 25 25 24 23 22 22 23 23 22 23 23 23 23 22 21 21 20 20 19 18 18 17 17 17 17 16 16 16 16 16 16 16 16 15 15 15 15 15
25 24 25 25 24 24 25 24 24 23 23 22 22 22 24 23 23 23 23 22 21 21 20 20 19 18 18 17 17 17 16 16 16 16 16 16 16 15 15 15 15 15 15 15
25 24 24 25 25 26 25 25 24 22 22 23 22 22 25 24 24 23 23 22 21 20 20 19 18 18 17 17 17 16 16 16 16 16 16 16 15 15 15 15 15 15 15 14
24 24 23 23 24 24 24 24 24 24 23 22 22 22 24 24 23 23 22 21 21 20 19 19 18 18 17 17 16 16 16 16 16 15 15 15 15 15 15 15 15 14 14 14
22 23 23 22 23 24 24 24 24 23 22 22 22 22 23 23 23 22 22 21 20 20 19 18 18 17 17 17 16 16 16 16 15 15 15 15 15 15 15 14 14 14 14 14
24 23 24 24 24 24 24 24 24 23 23 22 23 23 23 23 23 22 22 21 20 20 19 18 18 17 17 16 16 16 16 15 15 15 14 14 14 14 14 14 14 14 14 13
24 23 23 23 24 24 24 24 24 23 23 23 23 22 23 23 22 22 21 21 20 19 19 18 18 17 17 16 16 16 15 15 15 15 15 14 14 14 14 14 14 13 13 13
23 23 22 22 24 24 23 23 23 23 23 23 22 22 23 22 22 21 20 20 19 19 18 18 17 17 16 16 16 16 15 15 15 14 14 14 14 14 14 13 13 13 13 13
22 22 22 22 22 21 22 24 23 23 23 23 23 22 22 22 21 20 20 19 18 18 17 17 17 17 16 16 16 16 15 15 14 14 14 14 14 14 13 13 13 13 13 13
23 22 21 21 21 22 22 23 23 22 22 22 22 22 21 21 20 20 19 18 18 17 17 17 16 16 16 16 16 15 15 15 14 14 14 14 13 13 13 13 13 13 12 12
22 22 21 21 20 20 21 22 22 22 21 21 21 21 20 20 19 18 18 17 17 17 16 16 16 16 16 16 15 15 15 14 14 14 13 13 13 13 13 13 13 12 12 12
21 21 20 20 20 21 21 21 21 20 20 21 20 20 20 19 18 18 17 16 16 16 16 15 15 15 15 15 15 15 14 14 14 13 13 13 13 12 12 12 12 12 12 12
21 20 20 20 20 19 20 21 20 20 20 20 19 19 19 18 17 17 16 16 15 15 15 15 15 15 14 14 14 14 14 14 13 13 13 12 12 12 12 12 12 11 11 11
21 21 20 20 19 19 19 19 19 19 19 19 18 18 18 17 16 16 15 15 15 15 14 14 14 14 14 14 14 13 13 13 13 12 12 12 12 11 11 11 11 11 11 11
21 21 20 20 19 19 19 18 18 18 18 18 17 17 17 16 16 15 15 14 14 14 14 13 13 13 13 13 13 13 13 12 12 12 12 11 11 11 11 10 10 10 10 10
19 19 19 19 19 18 18 17 17 17 17 16 16 16 16 15 15 15 14 14 14 13 13 13 13 13 12 12 12 12 12 12 11 11 11 11 11 11 10 10 10 10 10 10
18 18 18 17 18 17 17 16 16 16 16 16 15 15 15 14 14 14 14 13 13 13 13 12 12 12 12 12 12 11 11 11 11 11 11 10 10 10 10 10 10 10 10 10
Wind_Speed
6 4 2 3 4 3 3 2 2 2 3 3 3 4 6 7 5 6 6 6 6 6 6 5 5 5 4 4 4 5 5 5 5 3 2 3 2 2 3 2 3 3 4 5
3 2 1 1 2 3 4 3 2 2 3 3 4 5 6 7 7 5 5 6 6 7 7 6 4 5 4 4 4 5 4 5 5 3 3 3 2 2 3 2 2 3 4 4
2 2 1 2 3 3 3 3 2 2 4 6 5 5 6 8 7 5 4 5 6 7 8 8 5 4 3 4 4 4 4 5 5 5 3 3 2 1 2 2 1 1 3 4
3 2 3 3 3 3 3 2 3 5 4 4 6 3 5 9 8 7 6 4 5 6 7 7 6 5 4 3 4 3 4 4 5 5 4 4 3 2 3 2 2 2 4 4
2 3 3 3 2 3 3 3 5 7 6 6 7 5 4 8 7 8 7 6 5 6 7 8 7 5 5 4 3 3 4 4 4 5 5 3 2 2 2 3 3 2 2 3
3 1 2 2 2 3 3 6 8 8 6 6 6 4 2 5 5 7 7 6 6 6 7 7 7 6 5 5 4 3 3 3 3 4 5 4 4 3 3 3 3 2 2 2
5 5 3 2 3 3 5 5 3 4 5 3 4 3 2 5 5 5 6 6 6 5 7 7 8 7 5 6 4 3 4 3 3 4 4 4 4 4 4 3 3 3 2 2
4 5 5 3 3 3 5 5 4 3 3 2 2 2 5 8 6 5 6 6 6 6 5 6 7 7 6 6 5 4 4 4 3 3 4 4 4 2 2 3 3 3 2 2
3 2 5 4 3 4 4 4 5 5 8 4 2 4 6 6 7 6 5 6 6 6 6 6 6 6 6 6 5 5 5 5 4 4 3 4 4 3 2 2 2 3 3 3
5 3 4 5 4 6 6 6 4 4 4 4 1 3 4 6 6 6 5 5 5 5 6 6 5 5 5 5 4 4 4 5 4 3 2 2 2 3 3 2 2 2 3 3
7 5 4 5 5 4 4 4 4 4 4 3 3 1 4 6 5 5 5 5 4 4 4 5 5 5 5 4 4 3 3 3 4 4 3 3 3 3 3 3 2 2 3 3
5 5 5 5 4 2 3 4 3 3 4 4 3 1 4 6 6 4 4 4 5 5 4 5 5 5 4 4 3 2 2 2 2 3 3 4 3 3 3 3 3 3 3 3
5 5 5 3 4 4 4 4 5 5 5 5 4 1 3 5 5 4 4 4 5 5 5 5 5 4 4 4 3 3 2 3 2 2 2 3 3 3 3 2 2 2 2 2
4 7 7 5 4 3 5 5 5 6 5 5 4 2 1 2 3 4 4 4 4 4 4 4 4 4 4 4 4 3 3 3 3 3 3 2 2 2 2 2 2 2 2 2
5 8 8 8 7 7 7 7 7 8 7 7 6 3 2 0 2 4 4 4 4 4 4 4 4 4 4 4 4 4 3 3 3 3 3 3 2 1 2 1 1 1 1 2
6 8 10 10 9 9 10 9 8 8 8 8 6 5 2 2 4 3 3 3 3 2 3 3 4 4 4 4 4 4 4 4 4 4 3 2 2 2 2 2 2 2 2 2
7 9 10 10 9 10 10 7 7 7 6 6 6 3 1 2 2 2 3 3 2 1 1 1 2 3 3 3 4 4 5 4 4 4 4 3 3 2 3 3 2 2 2 2
9 9 7 9 10 10 3 1 2 3 3 4 3 2 2 2 2 3 3 2 2 2 1 0 0 1 2 2 2 3 4 4 4 3 3 3 3 3 3 3 3 3 3 3
8 8 7 7 9 8 4 1 1 3 3 2 2 2 2 1 0 2 4 3 3 2 1 0 1 0 1 2 2 3 4 4 3 3 3 3 3 3 3 3 3 3 3 3
7 7 7 7 9 7 1 3 2 4 3 3 2 2 2 2 2 1 3 4 3 3 1 1 1 1 0 1 2 3 3 4 3 3 3 3 3 3 3 4 3 3 3 3
7 7 9 9 10 5 1 2 1 3 2 5 4 3 2 3 2 2 3 2 2 2 2 2 2 2 1 1 1 2 2 3 3 3 3 3 3 3 3 3 3 2 3 3
7 6 7 7 9 4 3 1 1 3 4 4 4 4 4 4 4 3 2 2 2 2 2 2 2 2 2 1 1 1 2 2 2 2 3 3 3 4 3 3 3 3 3 3
5 4 3 3 2 2 2 3 3 4 5 5 5 4 3 2 2 2 2 1 1 1 1 2 2 2 2 1 1 2 2 2 2 3 3 3 3 3 3 3 3 3 3 3
6 4 4 5 2 1 1 2 3 4 5 5 4 4 3 2 2 2 3 2 2 2 2 2 2 2 2 2 2 2 2 2 2 2 3 3 3 3 2 2 3 3 3 3
6 5 6 8 5 2 1 2 3 4 5 5 4 3 3 3 3 3 3 3 3 2 2 2 3 3 3 3 3 3 2 2 2 3 3 3 3 3 2 2 3 4 4 4
7 7 6 6 5 4 2 3 5 4 5 5 4 4 4 3 3 3 3 2 2 3 3 3 3 3 3 3 4 3 2 3 3 3 3 2 2 2 3 3 2 3 4 5
Wind_Direction
200 207 218 215 223 261 212 203 216 172 161 199 209 207 180 178 188 184 176 170 169 161 149 144 142 134 136 132 122 126 137 135 121 106 99 102 96 100 95 93 89 83 76 79
196 203 242 238 231 204 211 218 213 169 198 228 226 217 189 176 184 186 184 180 173 164 155 149 155 144 156 147 138 131 140 128 120 121 121 122 123 110 107 91 84 84 84 87
206 169 193 220 226 230 226 241 231 238 235 229 222 223 197 176 172 177 189 182 172 166 161 157 158 152 156 155 156 148 146 133 130 135 118 112 108 106 105 109 92 78 100 96
190 173 216 229 251 271 271 260 238 237 249 246 224 226 202 178 166 178 184 185 172 163 156 155 159 160 158 152 141 145 139 138 140 136 132 152 161 158 149 140 133 118 104 102
202 192 220 238 261 290 292 296 261 254 251 258 240 237 200 162 174 180 175 177 175 163 158 157 157 160 159 144 132 144 137 131 125 125 131 148 145 141 134 133 133 118 102 106
179 188 244 261 249 260 270 270 259 249 252 255 230 223 187 163 172 168 167 172 173 166 155 153 152 151 148 131 125 122 122 116 116 127 140 151 141 136 136 135 141 132 122 120
187 181 193 233 248 214 252 267 273 231 219 231 195 184 119 104 105 128 152 164 165 162 155 156 154 154 149 138 137 144 141 139 151 162 159 163 159 166 166 161 149 140 132 124
225 186 175 198 252 268 257 267 286 299 287 264 199 154 113 102 95 108 130 146 154 156 150 149 150 154 152 149 156 164 165 167 173 183 174 166 158 165 152 150 146 151 149 142
299 171 156 189 240 272 285 282 288 294 289 276 180 134 125 119 119 120 127 136 147 156 147 146 147 150 152 158 166 180 180 172 172 182 185 161 157 155 147 151 149 137 145 156
292 268 190 181 232 240 264 290 290 289 308 298 240 161 146 140 134 137 136 134 143 144 145 147 149 149 153 152 160 174 173 170 163 159 171 152 152 148 142 158 162 157 161 146
283 267 219 193 219 248 235 255 273 284 287 297 298 55 80 119 114 117 126 129 133 133 138 141 138 143 139 139 148 165 177 168 164 169 169 161 158 164 165 169 179 179 172 164
280 287 260 220 184 220 265 269 277 276 296 298 298 86 87 103 103 105 117 128 132 130 126 125 129 131 131 140 153 165 166 158 161 168 160 162 158 179 179 177 191 190 181 175
320 282 275 215 167 190 233 253 271 278 280 283 285 154 112 114 118 111 110 117 123 128 127 126 128 139 145 154 163 165 164 151 141 141 152 165 172 183 188 191 181 182 170 165
292 273 276 282 292 272 244 247 255 266 271 277 275 218 207 137 127 117 110 116 124 133 134 134 143 152 154 161 167 168 166 152 153 154 155 164 185 189 187 186 179 184 174 166
257 275 283 283 278 275 273 265 255 255 266 274 283 277 253 340 94 112 123 131 132 144 143 146 154 161 163 169 173 170 169 171 171 167 174 185 188 197 175 172 179 187 190 196
253 276 285 279 268 265 264 263 260 260 265 271 274 285 311 81 87 90 111 120 133 145 147 150 158 165 172 179 184 182 179 183 177 173 180 178 183 185 178 188 200 201 199 206
260 266 281 282 280 274 264 258 252 256 261 275 276 282 1 52 57 77 93 98 102 94 96 140 168 169 181 192 186 182 179 171 177 179 181 180 182 183 190 195 199 206 206 217
267 270 270 278 282 268 273 317 269 260 280 305 314 355 12 52 53 70 84 97 87 77 79 35 267 158 169 185 175 165 162 167 176 184 186 181 182 196 201 195 199 212 216 214
255 266 271 272 276 273 253 224 254 262 266 280 293 350 29 52 122 87 62 59 74 79 72 23 306 290 188 187 184 176 175 175 175 183 198 193 192 201 207 212 212 219 219 219
237 248 255 265 272 276 333 65 359 297 267 35 26 18 20 343 268 114 63 48 49 51 48 24 325 320 296 221 199 193 187 181 190 194 202 204 202 205 217 224 226 222 214 218
227 237 242 256 264 270 43 59 313 267 16 44 17 11 8 359 18 51 60 49 33 34 19 5 337 330 333 311 250 210 204 198 193 190 196 206 210 212 219 224 228 220 220 223
248 250 251 256 260 258 46 25 8 10 25 29 17 17 25 30 35 30 31 17 7 19 5 346 324 315 329 329 305 246 237 232 186 186 194 204 211 219 217 211 220 217 220 222
255 263 280 278 298 58 41 34 20 351 352 13 12 7 25 18 3 357 347 329 340 323 310 298 291 291 303 304 283 268 259 237 207 196 203 217 218 216 211 208 215 221 219 219
285 298 283 277 250 207 336 17 12 355 349 355 357 354 354 340 333 332 317 318 326 321 324 314 300 292 294 289 268 273 273 247 223 208 213 224 221 216 217 217 219 223 227 225
304 306 283 276 281 282 268 4 351 341 341 336 339 336 324 316 309 307 302 304 314 307 294 287 283 283 284 289 282 271 263 252 245 234 226 226 226 215 214 220 222 217 222 215
275 279 276 286 316 306 323 354 333 328 329 326 325 320 321 314 304 298 292 295 295 294 286 274 271 268 265 267 276 276 257 241 251 253 247 238 225 216 209 215 247 248 228 225
Height
1501 1504 1506 1504 1502 1503 1504 1509 1512 1510 1507 1510 1513 1515 1514 1515 1517 1519 1521 1523 1525 1527 1529 1531 1533 1534 1535 1536 1537 1538 1539 1540 1541 1542 1543 1544 1545 1545 1546 1547 1547 1548 1548 1549
1501 1505 1501 1499 1499 1501 1504 1509 1511 1509 1506 1508 1511 1512 1510 1513 1515 1517 1519 1521 1523 1525 1528 1530 1532 1533 1534 1535 1536 1537 1538 1539 1540 1542 1543 1544 1545 1545 1546 1547 1547 1548 1548 1549
1504 1503 1499 1500 1501 1502 1504 1507 1508 1510 1506 1505 1509 1514 1510 1510 1513 1516 1517 1519 1521 1523 1526 1528 1530 1532 1533 1535 1536 1537 1538 1539 1540 1541 1542 1543 1544 1545 1546 1546 1547 1548 1548 1548
1500 1499 1500 1501 1502 1502 1508 1501 1503 1505 1511 1514 1509 1523 1510 1506 1510 1513 1515 1517 1519 1522 1524 1526 1529 1530 1532 1534 1535 1536 1537 1538 1539 1540 1541 1543 1544 1545 1545 1546 1547 1547 1547 1548
1500 1498 1500 1502 1502 1501 1504 1500 1501 1503 1507 1512 1507 1515 1511 1504 1509 1510 1512 1515 1518 1520 1522 1525 1527 1529 1531 1532 1534 1535 1536 1537 1539 1539 1540 1542 1543 1544 1545 1545 1546 1546 1547 1547
1497 1498 1499 1499 1499 1500 1501 1501 1500 1501 1507 1519 1506 1512 1514 1504 1504 1505 1509 1512 1515 1518 1520 1523 1526 1528 1530 1531 1532 1534 1535 1536 1537 1538 1539 1541 1542 1543 1544 1544 1545 1546 1546 1547
1499 1498 1498 1498 1500 1500 1501 1509 1520 1521 1522 1516 1497 1505 1509 1499 1498 1502 1506 1510 1513 1516 1519 1521 1524 1526 1528 1530 1531 1533 1534 1535 1536 1537 1538 1540 1541 1542 1543 1543 1544 1545 1545 1546
1503 1505 1498 1497 1499 1502 1500 1504 1521 1528 1522 1510 1497 1506 1504 1497 1499 1502 1505 1509 1512 1515 1517 1520 1522 1525 1527 1528 1530 1531 1533 1534 1535 1536 1537 1538 1540 1541 1542 1542 1543 1543 1544 1545
1501 1503 1495 1495 1496 1498 1502 1502 1499 1508 1507 1511 1505 1503 1501 1497 1500 1503 1506 1508 1511 1514 1516 1519 1521 1523 1525 1527 1528 1530 1531 1532 1533 1535 1536 1537 1538 1539 1540 1541 1542 1542 1543 1543
1496 1502 1495 1494 1496 1496 1497 1498 1502 1509 1519 1521 1510 1506 1507 1502 1501 1503 1505 1508 1511 1513 1515 1517 1520 1521 1523 1525 1527 1528 1529 1530 1531 1533 1533 1535 1536 1537 1538 1539 1540 1540 1541 1542
1494 1500 1498 1496 1499 1499 1498 1500 1501 1505 1506 1519 1523 1516 1495 1498 1499 1502 1504 1507 1510 1512 1514 1516 1518 1520 1522 1523 1524 1526 1527 1529 1530 1531 1532 1533 1534 1535 1535 1536 1537 1538 1539 1540
1495 1497 1500 1495 1490 1491 1494 1497 1501 1514 1513 1508 1515 1516 1494 1496 1498 1501 1504 1507 1509 1512 1514 1516 1517 1519 1520 1522 1523 1524 1525 1526 1528 1529 1529 1530 1531 1532 1533 1534 1535 1536 1537 1538
1498 1500 1506 1505 1502 1496 1496 1495 1497 1500 1505 1509 1516 1516 1495 1496 1499 1502 1504 1506 1508 1511 1513 1515 1516 1518 1519 1520 1521 1523 1523 1524 1525 1526 1527 1528 1529 1530 1531 1532 1533 1534 1535 1536
1501 1499 1504 1511 1504 1496 1498 1496 1496 1501 1509 1509 1507 1506 1499 1497 1499 1501 1503 1505 1508 1510 1512 1513 1515 1516 1517 1519 1520 1521 1522 1522 1523 1524 1525 1526 1527 1527 1528 1529 1530 1531 1532 1533
1497 1499 1495 1493 1491 1491 1494 1494 1495 1498 1499 1505 1502 1500 1498 1496 1498 1500 1503 1505 1507 1509 1511 1512 1513 1515 1516 1517 1518 1519 1519 1520 1521 1522 1523 1523 1524 1525 1526 1527 1527 1528 1529 1530
1496 1498 1496 1495 1489 1489 1492 1492 1492 1494 1494 1496 1496 1498 1494 1495 1497 1500 1502 1504 1506 1508 1509 1511 1512 1513 1514 1515 1516 1516 1517 1518 1519 1519 1520 1521 1522 1523 1523 1524 1525 1526 1527 1527
1495 1497 1500 1499 1490 1490 1496 1490 1490 1492 1491 1493 1497 1496 1493 1495 1497 1499 1501 1503 1505 1507 1508 1509 1510 1511 1512 1513 1514 1514 1515 1516 1516 1517 1518 1518 1519 1520 1521 1521 1522 1523 1523 1524
1495 1495 1497 1498 1497 1506 1495 1484 1485 1488 1490 1490 1491 1492 1494 1496 1498 1500 1501 1503 1504 1506 1507 1508 1508 1509 1510 1511 1512 1512 1513 1513 1514 1514 1515 1515 1516 1517 1518 1518 1519 1519 1520 1521
1491 1495 1499 1500 1503 1496 1490 1486 1487 1490 1492 1490 1491 1492 1494 1496 1497 1500 1501 1502 1504 1505 1505 1506 1507 1507 1508 1508 1509 1510 1510 1511 1511 1512 1512 1513 1513 1514 1514 1514 1515 1516 1517 1517
1490 1492 1498 1499 1505 1505 1494 1487 1487 1490 1494 1490 1491 1493 1495 1496 1499 1501 1501 1502 1503 1504 1504 1504 1505 1505 1506 1506 1507 1507 1508 1508 1508 1508 1509 1510 1510 1510 1511 1511 1511 1512 1513 1513
1494 1495 1498 1500 1501 1495 1489 1488 1488 1499 1498 1493 1493 1494 1495 1496 1499 1500 1500 1501 1502 1502 1503 1503 1503 1503 1503 1504 1504 1504 1505 1505 1505 1505 1505 1506 1506 1507 1507 1508 1508 1508 1509 1509
1491 1494 1495 1495 1500 1501 1490 1490 1493 1495 1493 1493 1494 1495 1496 1497 1498 1499 1499 1500 1500 1500 1500 1501 1501 1501 1501 1501 1501 1501 1501 1501 1502 1502 1502 1502 1503 1503 1503 1503 1504 1504 1504 1505
1486 1488 1490 1492 1496 1492 1491 1492 1494 1494 1494 1494 1495 1496 1496 1497 1497 1498 1498 1498 1499 1499 1499 1499 1498 1498 1498 1498 1498 1498 1498 1499 1498 1498 1498 1498 1499 1499 1499 1499 1499 1500 1500 1500
1485 1485 1487 1489 1489 1491 1492 1492 1493 1494 1494 1495 1495 1496 1496 1496 1496 1496 1496 1496 1496 1496 1496 1496 1496 1495 1495 1495 1495 1495 1495 1495 1495 1494 1494 1495 1495 1495 1495 1495 1495 1495 1495 1495
1489 1488 1488 1489 1489 1490 1491 1492 1493 1494 1494 1494 1494 1495 1495 1495 1494 1494 1494 1494 1494 1493 1493 1493 1493 1492 1491 1491 1491 1491 1491 1491 1491 1490 1490 1490 1490 1490 1491 1491 1490 1490 1491 1491
1489 1490 1490 1491 1490 1490 1491 1491 1492 1492 1493 1493 1493 1493 1493 1493 1492 1492 1492 1491 1491 1490 1490 1489 1489 1488 1488 1488 1487 1487 1487 1487 1487 1487 1486 1486 1486 1486 1486 1486 1486 1486 1487 1487